Location: PSU-Greenbush Astrophysical Observatory
(37.5140°N, 94.9880°W)
Time: 15:37:08
(UTC-05:00)

BEESAT - Pass Details

Date: 23 February 2020
Orbit: 700 x 708 km, 98.6° (Epoch: 09 April)

Event Time Altitude Azimuth Distance (km) Brightness Sun altitude
Rises 19:00:21 0° 360° (N) 3,094 ? -11.2°
Reaches altitude 10° 19:02:54 10° 348° (NNW) 2,171 ? -11.7°
Maximum altitude 19:06:48 26° 292° (WNW) 1,362 ? -12.5°
Drops below altitude 10° 19:10:42 10° 236° (WSW) 2,159 ? -13.3°
Sets 19:13:14 0° 224° (SW) 3,073 ? -13.8°
